x

South Hatteras - 225 South Of Cape Hatteras (41002) Wave Buoy

12:50 - Thu 25th May 2017 All times are EDT. -4 hours from GMT.

  • Sig Wave height 9.8ft
  • Swell Direction
  • Peak Period 8s
  • Average Period 6s
  • Wind
    25mph, 31mph gusts
  • Sea Temp 76°f
  • Air Temp 77°f
  • Sea Pressure 1008.5mb
  • South Hatteras - 225 South Of Cape Hatteras
  • South Hatteras - 225 South Of Cape Hatteras

More Historic Weather Station data

Upgrade to MSW Pro to gain access to the past 30 days of data for over 8000 Wavebouys and Weather Stations around the globe.

Join Pro

Comparision Forecast

View Surf forecast
   
jeu. 05/25 12:50 10ft 8s 6s 25 31 mph 1008.5mb 76f 77f
11:50 9.5ft 8s 6s 27 31 mph 1009.3mb 76f 77f
10:50 10ft 8s 6s 27 31 mph 1009.3mb 76f 77f
9:50 10.5ft 8s 6s 27 31 mph 1009.3mb 76f 77f
8:50 9.5ft 7s 6s 27 34 mph 1008.6mb 76f 76f
7:50 12ft 8s 6s 29 36 mph 1008.2mb 76f 76f
6:50 11.5ft 8s 6s 31 40 mph 1007.9mb 76f 77f
5:50 11ft 8s 6s 31 36 mph 1007.3mb 77f 76f
4:50 11ft 8s 6s 31 36 mph 1006.6mb 77f 76f
3:50 9ft 8s 6s 34 40 mph 1006.6mb 77f 78f
2:50 10ft 8s 6s 29 45 mph 1007.5mb 77f 77f
1:50 9.5ft 7s 6s 34 40 mph 1008.5mb 77f 71f
12:50 9.5ft 7s 6s 29 36 mph 1008.9mb 77f 78f
mer. 05/24 11:50 9ft 8s 6s 27 36 mph 1009.2mb 77f 78f
10:50 7.5ft 7s 6s 29 34 mph 1008.9mb 77f 78f
9:50 8.5ft 8s 6s 25 29 mph 1009mb 77f 78f
8:50 8ft 8s 6s 22 29 mph 1009.5mb 77f 78f
7:50 8ft 8s 6s 20 25 mph 1009.5mb 77f 78f
6:50 8ft 7s 6s 20 25 mph 1009.3mb 77f 78f
5:50 8ft 7s 6s 18 22 mph 1009.2mb 77f 77f
4:50 9ft 8s 6s 20 25 mph 1009.3mb 76f 77f
3:50 8ft 8s 6s 22 27 mph 1009.7mb 76f 78f
2:50 7ft 8s 6s 20 25 mph 1010.4mb 76f 78f
1:50 8ft 8s 6s 25 29 mph 1010.4mb 76f 78f
12:50 8ft 8s 6s 16 20 mph 1010.4mb 76f 77f
11:50 8.5ft 8s 6s 22 29 mph 1010.4mb 76f 77f
10:50 9ft 7s 6s 22 27 mph 1010.5mb 76f 77f
9:50 8ft 8s  -  25 29 mph 1010.4mb 76f 77f
8:50 8.5ft 7s 6s 25 31 mph 1010.6mb 76f 77f
7:50 8ft 7s 6s 25 31 mph 1010.2mb 76f 77f
6:50 8ft 6s 6s 25 31 mph 1010mb 76f 77f
5:50 8ft 7s 6s 27 34 mph 1009.8mb 76f 77f
4:50 8ft 7s 6s 25 29 mph 1009.6mb 76f 77f
3:50 7ft 6s 5s 27 34 mph 1009.6mb 76f 77f
2:50 7ft 6s 6s 27 31 mph 1009.9mb 76f 77f
1:50 7ft 7s 6s 27 31 mph 1009.8mb 76f 77f
12:50 7ft 6s 5s 25 29 mph 1010.7mb 76f 77f
mar. 05/23 11:50 6.5ft 7s 5s 25 29 mph 1011.5mb 76f 77f
10:50 6.5ft 6s 6s 25 31 mph 1011.8mb 76f 77f
9:50 6ft 6s 5s 20 25 mph 1011.9mb 76f 77f
8:50 5ft 6s 5s 16 20 mph 1012.3mb 76f 77f
7:50 5ft 6s 5s 18 20 mph 1012.6mb 76f 77f
6:50 5ft 6s 5s 20 22 mph 1011.5mb 76f 77f
5:50 5ft 6s 5s 20 25 mph 1012.1mb 76f 77f
4:50 4.5ft 6s 5s 20 25 mph 1011.8mb 76f 77f
3:50 4.5ft 6s 5s 18 25 mph 1012.3mb 76f 76f
2:50 4.5ft 5s 5s 20 25 mph 1013.2mb 76f 77f
1:50 4.5ft 5s 5s 18 22 mph 1013.9mb 76f 76f
12:50 4.5ft 5s 5s 20 22 mph 1014.6mb 76f 76f
11:50 4.5ft 5s 5s 20 25 mph 1015.2mb 76f 76f
10:50 4.5ft 5s 4s 20 25 mph 1015.4mb 76f 76f
9:50 4ft 5s 4s 22 25 mph 1015.5mb 76f 76f
8:50 4ft 4s 4s 20 25 mph 1015.2mb 76f 76f
7:50 3.5ft 4s 4s 18 20 mph 1015.2mb 76f 75f
6:50 3.5ft 4s 4s 18 20 mph 1015.3mb 76f 75f
5:50 3.5ft 4s 4s 18 20 mph 1014.8mb 76f 75f
4:50 3.5ft 8s 5s 18 20 mph 1014.8mb 77f 75f
3:50 3.5ft 8s 5s 18 20 mph 1015.1mb 76f 75f
2:50 3ft 8s 5s 16 20 mph 1016mb 76f 75f
1:50 3ft 8s 5s 16 20 mph 1016.7mb 76f 75f
12:50 3ft 8s 5s 13 18 mph 1017.9mb 76f 76f
lun. 05/22 11:50 3ft 8s 5s 13 16 mph 1018.3mb 77f 76f
10:50 3ft 8s 5s 13 18 mph 1018.6mb 77f 76f
9:50 3ft 8s 6s 11 16 mph 1018.6mb 77f 76f
8:50 3ft 8s 6s 11 16 mph 1017.7mb 78f 76f
7:50 3ft 8s 6s 11 13 mph 1017.4mb 78f 76f
6:50 3ft 8s 7s 9 11 mph 1016.9mb 78f 76f
5:50 2.5ft 8s 6s 9 9 mph 1016.9mb 78f 76f
4:50 3.5ft 8s 6s 4 9 mph 1017.5mb 79f 76f
3:50 3.5ft 8s 6s 2 4 mph 1018.3mb 79f 76f
2:50 3.5ft 8s 7s 4 7 mph 1018.9mb 78f 76f
1:50 4ft 8s 7s 4 7 mph 1019.6mb 78f 75f
12:50 3.5ft 8s 7s 7 7 mph 1019.8mb 77f 75f
11:50 3.5ft 8s 6s 7 9 mph 1020.2mb 77f 75f
10:50 3.5ft 9s 6s 7 9 mph 1020.2mb 77f 75f
9:50 3.5ft 8s 6s 7 9 mph 1020.3mb 77f 75f
8:50 3.5ft 10s 6s 9 11 mph 1020.6mb 77f 75f
7:50 3ft 8s 6s 9 11 mph 1020.4mb 77f 75f
6:50 3ft 9s 6s 11 11 mph 1020.1mb 77f 75f
5:50 3ft 8s 6s 11 13 mph 1019.7mb 77f 75f
4:50 3ft 9s 6s 9 11 mph 1019.5mb 77f 75f
3:50 2.5ft 9s 6s 11 13 mph 1019.5mb 77f 75f
2:50 2.5ft 9s 7s 9 11 mph 1019.5mb 78f 76f
1:50 2.5ft 8s 6s 9 11 mph 1019.9mb 78f 76f
12:50 2.5ft 8s 6s 4 7 mph 1020.6mb 77f 76f
dim. 05/21 11:50 2.5ft 8s 6s 4 7 mph 1020.7mb 78f 76f
10:50 2.5ft 9s 6s 4 7 mph 1021.3mb 78f 76f
9:50 2.5ft 9s 6s 4 7 mph 1021.2mb 80f 76f
8:50 2.5ft 8s 6s  -  2 mph 1021mb 80f 76f
7:50 2.5ft 8s 6s 2 2 mph 1020.5mb 80f 76f
6:50 2.5ft 6s 6s 2 4 mph 1020mb 80f 77f